Tracking 19817 objects as of 19-Aug-2019
HD Live streaming from Space Station
objects crossing your sky now

SOLRAD 1 (GREB)

Track SOLRAD 1 (GREB) now!
10-day predictions
SOLRAD 1 (GREB) is classified as:


NORAD ID: 46
Int'l Code: 1960-007B
Perigee: 585.5 km
Apogee: 885.1 km
Inclination: 66.7 °
Period: 99.4 minutes
Semi major axis: 7106 km
RCS: 0.3563 m2 (medium)
Launch date: June 22, 1960
Source: United States (US)
Launch site: AIR FORCE EASTERN TEST RANGE (AFETR)
aabbcc
Your satellite tracking list
Your tracking list is empty




NASA's NSSDC Master Catalog

Two Line Element Set (TLE):
1    46U 60007B   19230.95741257 -.00000032 +00000-0 +16886-4 0  9997
2    46 066.6906 146.5685 0210778 355.3155 004.5973 14.49238810095138
Source of the keplerian elements: AFSPC